When you browse on this site, cookies collect data to enhance your experience and personalize the content and advertising you see.
Visit our Privacy Policy to learn more. By continuing to use the site, you agree to this use of cookies and data.
  • In Romania
  • List of Countries
  • For 7 days
  • Water Temperature
  • Weather Map
  • Weather Widgets
  • user-avatar
    Login

    Hourly Weather Glasgow

    Today, 14 November, Thursday

    Time Temperature Precipitation Wind Pressure Humidity
    00:00 -1°C° 0 mm 4 mps 749 mmHg 87%
    01:00 -1°C° 0 mm 5 mps 749 mmHg 86%
    02:00 -1°C° 0 mm 5 mps 749 mmHg 86%
    03:00 -2°C° 0 mm 6 mps 750 mmHg 85%
    04:00 -2°C° 0.1 mm 6 mps 750 mmHg 86%
    05:00 -1°C° 0.1 mm 7 mps 750 mmHg 86%
    06:00 -1°C° 0.1 mm 7 mps 751 mmHg 86%
    07:00 -1°C° 0 mm 7 mps 752 mmHg 86%
    08:00 -1°C° 0 mm 7 mps 752 mmHg 86%
    09:00 0°C° 0 mm 8 mps 753 mmHg 85%
    10:00 +1°C° 0.1 mm 8 mps 753 mmHg 82%
    11:00 +2°C° 0.1 mm 8 mps 754 mmHg 78%
    12:00 +3°C° 0.1 mm 9 mps 754 mmHg 74%
    13:00 +2°C° 0.1 mm 9 mps 754 mmHg 77%
    14:00 +2°C° 0.1 mm 10 mps 755 mmHg 80%
    15:00 +2°C° 0.1 mm 11 mps 755 mmHg 83%
    16:00 +1°C° 0.3 mm 10 mps 756 mmHg 85%
    17:00 +1°C° 0.3 mm 10 mps 756 mmHg 87%
    18:00 +1°C° 0.3 mm 10 mps 757 mmHg 90%
    19:00 +1°C° 0.6 mm 9 mps 758 mmHg 90%
    20:00 +1°C° 0.6 mm 8 mps 758 mmHg 90%
    21:00 +1°C° 0.6 mm 8 mps 759 mmHg 90%
    22:00 +2°C° 0.2 mm 7 mps 760 mmHg 89%
    23:00 +2°C° 0.2 mm 7 mps 760 mmHg 89%

    Tomorrow, 15 November, Friday

    Time Temperature Precipitation Wind Pressure Humidity
    00:00 +2°C° 0.2 mm 6 mps 760 mmHg 88%
    01:00 +1°C° 0.1 mm 6 mps 761 mmHg 89%
    02:00 +1°C° 0.1 mm 6 mps 761 mmHg 90%
    03:00 +1°C° 0.1 mm 6 mps 762 mmHg 91%
    04:00 0°C° 0 mm 5 mps 762 mmHg 91%
    05:00 0°C° 0 mm 5 mps 762 mmHg 91%
    06:00 0°C° 0 mm 5 mps 762 mmHg 91%
    07:00 +1°C° 0 mm 5 mps 762 mmHg 90%
    08:00 +1°C° 0 mm 4 mps 763 mmHg 90%
    09:00 +3°C° 0 mm 4 mps 763 mmHg 90%
    10:00 +4°C° 0 mm 4 mps 763 mmHg 87%
    11:00 +4°C° 0 mm 4 mps 763 mmHg 83%
    12:00 +5°C° 0 mm 5 mps 763 mmHg 80%
    13:00 +5°C° 0 mm 5 mps 763 mmHg 83%
    14:00 +4°C° 0 mm 4 mps 763 mmHg 85%
    15:00 +4°C° 0 mm 4 mps 763 mmHg 87%
    16:00 +3°C° 0 mm 4 mps 763 mmHg 89%
    17:00 +3°C° 0 mm 4 mps 762 mmHg 90%
    18:00 +1°C° 0 mm 4 mps 762 mmHg 92%
    19:00 +1°C° 0 mm 4 mps 762 mmHg 92%
    20:00 +1°C° 0 mm 4 mps 762 mmHg 92%
    21:00 +2°C° 0 mm 3 mps 762 mmHg 92%
    22:00 +1°C° 0 mm 3 mps 762 mmHg 92%
    23:00 0°C° 0 mm 4 mps 761 mmHg 92%

    Day after tomorrow, 16 November, Saturday

    Time Temperature Precipitation Wind Pressure Humidity
    00:00 0°C° 0 mm 4 mps 761 mmHg 92%
    01:00 0°C° 0 mm 4 mps 760 mmHg 92%
    02:00 0°C° 0 mm 4 mps 760 mmHg 92%
    03:00 0°C° 0 mm 3 mps 760 mmHg 93%
    04:00 0°C° 0 mm 3 mps 759 mmHg 93%
    05:00 0°C° 0 mm 3 mps 759 mmHg 92%
    06:00 0°C° 0 mm 3 mps 759 mmHg 92%
    07:00 0°C° 0 mm 3 mps 759 mmHg 91%
    08:00 +1°C° 0 mm 2 mps 759 mmHg 90%
    09:00 +2°C° 0 mm 2 mps 758 mmHg 89%
    10:00 +3°C° 0.1 mm 2 mps 758 mmHg 87%
    11:00 +4°C° 0.1 mm 1 mps 758 mmHg 84%
    12:00 +5°C° 0.1 mm 1 mps 757 mmHg 82%
    13:00 +5°C° 0 mm 1 mps 757 mmHg 83%
    14:00 +5°C° 0 mm 1 mps 757 mmHg 83%
    15:00 +4°C° 0 mm 1 mps 756 mmHg 84%
    16:00 +4°C° 0 mm 1 mps 756 mmHg 83%
    17:00 +4°C° 0 mm 1 mps 756 mmHg 83%
    18:00 +3°C° 0 mm 1 mps 756 mmHg 82%
    19:00 +2°C° 0 mm 2 mps 756 mmHg 80%
    20:00 +2°C° 0 mm 2 mps 756 mmHg 79%
    21:00 +2°C° 0 mm 2 mps 756 mmHg 77%
    22:00 +1°C° 0 mm 2 mps 755 mmHg 77%
    23:00 +1°C° 0 mm 2 mps 755 mmHg 77%

    17 November, Sunday

    Time Temperature Precipitation Wind Pressure Humidity
    00:00 -1°C° 0 mm 3 mps 755 mmHg 78%
    01:00 0°C° 0 mm 3 mps 755 mmHg 78%
    02:00 +1°C° 0 mm 2 mps 755 mmHg 78%
    03:00 +1°C° 0 mm 2 mps 755 mmHg 77%
    04:00 +1°C° 0 mm 2 mps 755 mmHg 79%
    05:00 +2°C° 0 mm 1 mps 755 mmHg 80%
    06:00 +2°C° 0 mm 1 mps 756 mmHg 81%
    07:00 +2°C° 0 mm 2 mps 756 mmHg 84%
    08:00 +2°C° 0 mm 2 mps 756 mmHg 87%
    09:00 +1°C° 0 mm 3 mps 757 mmHg 90%
    10:00 +1°C° 0.3 mm 4 mps 757 mmHg 92%
    11:00 +1°C° 0.3 mm 5 mps 758 mmHg 94%
    12:00 +2°C° 0.3 mm 6 mps 758 mmHg 95%
    13:00 +2°C° 0.6 mm 6 mps 758 mmHg 93%
    14:00 +2°C° 0.6 mm 7 mps 758 mmHg 91%
    15:00 +2°C° 0.6 mm 7 mps 759 mmHg 89%
    16:00 +1°C° 0.1 mm 6 mps 759 mmHg 89%
    17:00 -1°C° 0.1 mm 6 mps 759 mmHg 89%
    18:00 -1°C° 0.1 mm 5 mps 760 mmHg 89%
    19:00 -1°C° 0 mm 5 mps 760 mmHg 88%
    20:00 -1°C° 0 mm 5 mps 760 mmHg 87%
    21:00 -1°C° 0 mm 5 mps 760 mmHg 86%
    22:00 -1°C° 0 mm 5 mps 760 mmHg 85%
    23:00 -1°C° 0 mm 5 mps 760 mmHg 85%

    18 November, Monday

    Time Temperature Precipitation Wind Pressure Humidity
    00:00 -2°C° 0 mm 5 mps 760 mmHg 84%
    01:00 -2°C° 0 mm 5 mps 760 mmHg 84%
    02:00 -2°C° 0 mm 5 mps 760 mmHg 84%
    03:00 -2°C° 0 mm 5 mps 760 mmHg 84%
    04:00 -2°C° 0 mm 5 mps 760 mmHg 84%
    05:00 -2°C° 0 mm 5 mps 760 mmHg 85%
    06:00 -2°C° 0 mm 4 mps 760 mmHg 86%
    07:00 -2°C° 0 mm 5 mps 760 mmHg 85%
    08:00 -1°C° 0 mm 5 mps 760 mmHg 85%
    09:00 -1°C° 0 mm 5 mps 760 mmHg 85%
    10:00 0°C° 0 mm 5 mps 760 mmHg 82%
    11:00 +1°C° 0 mm 5 mps 760 mmHg 78%
    12:00 +2°C° 0 mm 5 mps 759 mmHg 75%
    13:00 +3°C° 0 mm 4 mps 759 mmHg 78%
    14:00 +1°C° 0 mm 4 mps 759 mmHg 81%
    15:00 +1°C° 0 mm 4 mps 758 mmHg 83%
    16:00 0°C° 0 mm 4 mps 758 mmHg 85%
    17:00 -1°C° 0 mm 4 mps 757 mmHg 86%
    18:00 -1°C° 0 mm 4 mps 757 mmHg 87%
    19:00 -2°C° 0 mm 4 mps 756 mmHg 87%
    20:00 -2°C° 0 mm 5 mps 756 mmHg 86%
    21:00 -2°C° 0 mm 5 mps 756 mmHg 86%
    22:00 -2°C° 0 mm 5 mps 755 mmHg 86%
    23:00 -2°C° 0 mm 5 mps 755 mmHg 86%

    19 November, Tuesday

    Time Temperature Precipitation Wind Pressure Humidity
    00:00 -2°C° 0 mm 5 mps 754 mmHg 85%
    01:00 -2°C° 0 mm 5 mps 753 mmHg 86%
    02:00 -2°C° 0 mm 5 mps 753 mmHg 86%
    03:00 -2°C° 0 mm 5 mps 752 mmHg 86%
    04:00 -2°C° 0 mm 5 mps 751 mmHg 86%
    05:00 -2°C° 0 mm 5 mps 751 mmHg 85%
    06:00 -2°C° 0 mm 5 mps 750 mmHg 85%
    07:00 -2°C° 0 mm 5 mps 750 mmHg 83%
    08:00 -2°C° 0 mm 5 mps 749 mmHg 81%
    09:00 -2°C° 0 mm 4 mps 749 mmHg 79%
    10:00 -1°C° 0 mm 4 mps 748 mmHg 73%
    11:00 0°C° 0 mm 4 mps 748 mmHg 67%
    12:00 +1°C° 0 mm 4 mps 747 mmHg 61%
    13:00 +1°C° 0 mm 4 mps 747 mmHg 63%
    14:00 0°C° 0 mm 4 mps 746 mmHg 64%
    15:00 0°C° 0 mm 4 mps 746 mmHg 66%
    16:00 0°C° 0 mm 3 mps 746 mmHg 65%
    17:00 0°C° 0 mm 3 mps 745 mmHg 63%
    18:00 0°C° 0 mm 3 mps 745 mmHg 62%
    19:00 +1°C° 0 mm 2 mps 745 mmHg 62%
    20:00 +1°C° 0 mm 2 mps 745 mmHg 61%
    21:00 +1°C° 0 mm 2 mps 745 mmHg 61%
    22:00 +1°C° 0 mm 2 mps 745 mmHg 61%
    23:00 +1°C° 0 mm 2 mps 745 mmHg 60%
    Show more